Tracking 27401 objects as of 4-Jun-2023
HD Live streaming from Space Station
objects crossing your sky now

GEOTAIL

Track GEOTAIL now!
GEOTAIL is classified as:


NORAD ID: 22049
Int'l Code: 1992-044A
Perigee: 58,041.2 km
Apogee: 182,806.2 km
Inclination: 48.0 °
Period: 7,488.8 minutes
Semi major axis: 126794 km
RCS: 3.5 m2 (large)
Launch date: July 24, 1992
Source: Japan (JPN)
Launch site: AIR FORCE EASTERN TEST RANGE (AFETR)

Study the dynamics of the Earth's magnetotail over a wide range of distance
Your satellite tracking list
Your tracking list is empty




NASA's NSSDC Master Catalog

Two Line Element Set (TLE):
1 22049U 92044A   23154.81330066 -.00001404  00000-0  00000+0 0  9997
2 22049  47.9587  31.4756 4919964 218.1653   0.4647  0.19228761 13622
Source of the keplerian elements: AFSPC